TimeCST,TemperatureF,Dew PointF,Humidity,Sea Level PressureIn,VisibilityMPH,Wind Direction,Wind SpeedMPH,Gust SpeedMPH,PrecipitationIn,Events,Conditions,WindDirDegrees,DateUTC
12:41 AM,10.0,3.0,73,30.32,4.0,North,19.6,29.9,N/A,,Haze,360,2014-02-05 06:41:00
12:52 AM,9.0,3.0,77,30.38,4.0,North,20.7,28.8,N/A,,Haze,350,2014-02-05 06:52:00
1:02 AM,9.0,1.9,73,30.32,4.0,North,25.3,32.2,N/A,,Haze,360,2014-02-05 07:02:00
1:33 AM,8.1,1.9,76,30.34,4.0,North,20.7,34.5,N/A,,Haze,350,2014-02-05 07:33:00
1:52 AM,7.0,1.0,77,30.40,5.0,North,23.0,29.9,N/A,,Haze,360,2014-02-05 07:52:00
2:27 AM,7.0,1.0,77,30.36,5.0,North,19.6,27.6,N/A,,Haze,360,2014-02-05 08:27:00
2:38 AM,7.0,-0.0,73,30.37,5.0,North,21.9,32.2,N/A,,Haze,360,2014-02-05 08:38:00
2:52 AM,6.1,-0.0,76,30.44,7.0,North,20.7,-,N/A,,Mostly Cloudy,360,2014-02-05 08:52:00
3:25 AM,5.0,-0.9,76,30.40,8.0,North,19.6,28.8,N/A,,Scattered Clouds,360,2014-02-05 09:25:00
3:40 AM,5.0,-0.9,76,30.40,7.0,North,21.9,28.8,0.00,Snow,Light Snow,360,2014-02-05 09:40:00
3:48 AM,5.0,-2.2,72,30.41,6.0,North,18.4,28.8,0.00,Snow,Light Snow,360,2014-02-05 09:48:00
3:52 AM,5.0,-2.0,73,30.47,7.0,North,18.4,28.8,0.00,Snow,Light Snow,10,2014-02-05 09:52:00
4:02 AM,5.0,-2.0,73,30.40,8.0,North,18.4,28.8,0.00,Snow,Light Snow,360,2014-02-05 10:02:00
4:52 AM,3.9,-2.9,73,30.53,6.0,North,21.9,34.5,0.00,Snow,Blowing Snow,350,2014-02-05 10:52:00
5:15 AM,3.9,-2.9,73,30.46,8.0,North,21.9,28.8,N/A,,Mostly Cloudy,360,2014-02-05 11:15:00
5:23 AM,3.9,-2.9,73,30.46,8.0,North,17.3,31.1,N/A,,Scattered Clouds,360,2014-02-05 11:23:00
5:52 AM,3.0,-2.9,76,30.55,8.0,North,18.4,31.1,0.00,,Partly Cloudy,360,2014-02-05 11:52:00
6:50 AM,3.2,-4.0,72,30.51,10.0,North,13.8,23.0,0.00,,Mostly Cloudy,350,2014-02-05 12:50:00
6:52 AM,3.0,-4.0,73,30.58,10.0,North,15.0,23.0,0.00,,Mostly Cloudy,350,2014-02-05 12:52:00
7:41 AM,1.9,-4.0,76,30.52,8.0,North,16.1,-,0.00,,Overcast,360,2014-02-05 13:41:00
7:52 AM,1.9,-4.0,76,30.60,10.0,North,17.3,-,0.00,,Mostly Cloudy,360,2014-02-05 13:52:00
8:08 AM,3.0,-5.1,69,30.54,10.0,North,16.1,26.5,0.00,,Scattered Clouds,360,2014-02-05 14:08:00
8:52 AM,3.0,-5.1,69,30.65,10.0,North,18.4,25.3,0.00,,Clear,360,2014-02-05 14:52:00
9:52 AM,5.0,-4.0,66,30.67,9.0,North,20.7,31.1,0.00,,Clear,360,2014-02-05 15:52:00
10:52 AM,6.1,-4.0,63,30.71,10.0,North,15.0,25.3,0.00,,Clear,360,2014-02-05 16:52:00
11:52 AM,6.1,-5.1,60,30.69,10.0,North,15.0,-,N/A,,Clear,10,2014-02-05 17:52:00
12:52 PM,8.1,-4.0,58,30.65,10.0,North,17.3,25.3,N/A,,Clear,10,2014-02-05 18:52:00
1:52 PM,8.1,-2.9,61,30.66,10.0,North,21.9,27.6,N/A,,Clear,350,2014-02-05 19:52:00
2:52 PM,9.0,-2.9,59,30.66,10.0,North,18.4,-,N/A,,Clear,10,2014-02-05 20:52:00
3:52 PM,8.1,-4.0,58,30.68,10.0,North,17.3,23.0,N/A,,Clear,350,2014-02-05 21:52:00
4:52 PM,8.1,-4.0,58,30.69,10.0,North,16.1,21.9,N/A,,Clear,360,2014-02-05 22:52:00
5:52 PM,7.0,-5.1,58,30.71,10.0,North,11.5,-,N/A,,Clear,350,2014-02-05 23:52:00
6:52 PM,6.1,-5.1,60,30.72,10.0,North,10.4,-,N/A,,Clear,360,2014-02-06 00:52:00
7:52 PM,7.0,-5.1,58,30.72,10.0,North,10.4,-,N/A,,Clear,350,2014-02-06 01:52:00
8:52 PM,6.1,-5.1,60,30.69,10.0,North,10.4,-,N/A,,Partly Cloudy,10,2014-02-06 02:52:00
9:52 PM,5.0,-6.0,61,30.69,10.0,NNE,11.5,-,N/A,,Mostly Cloudy,20,2014-02-06 03:52:00
10:52 PM,5.0,-6.0,61,30.70,10.0,North,5.8,-,N/A,,Mostly Cloudy,10,2014-02-06 04:52:00
11:52 PM,5.0,-5.1,63,30.71,10.0,NNW,6.9,-,N/A,,Overcast,340,2014-02-06 05:52:00